Starlink 30539

operational
NORAD ID: 58004 Int'l Des: 2023-153 Owner: SPXS Country: US Constellation: starlink
LEOCIRCULAR

About Starlink 30539

Description loading...

Live Position

Loading 3D Globe...

Upcoming Passes

Altitude History

Altitude vs Time

uPlot chart will show altitude changes over time

Two-Line Element Set

1 58004U 23153P 25350.76536311 .00000661 00000-0 63964-4 0 9993
2 58004 43.0027 159.2318 0001214 261.7985 98.2719 15.02534780122400
Epoch: Dec 16, 2025 • Age: 15 hours

Current Status

Altitude 562.9 km
Velocity 7.58 km/s
Sub-Earth Point -19.61°S, 127.01°E
Launch Date Oct 5, 2023
Age 2.2 years
Type internet

Technical Details

Classification Payload
Mass 730.00 kg
Dry Mass 700.00 kg
Total Mass 730.00 kg
Length 0.30 m
Diameter 4.10 m
Span 29.00 m
Shape Box + pan
Manufacturer SPXS
Bus Type Starlink V2M
Phase Status In Orbit
Owner/State SPXS/US

Large Constellations

Loading constellations...